[[{"header":{"parameterUnit":"m.s-1","parameterCategory":1,"la1":30.2991,"la2":30.254,"lo1":-89.0895,"lo2":-89.0444,"dx":0.0017,"dy":0.0017,"nx":28,"ny":28,"refTime":"2023-01-20T09:00:00:Z","depth":0,"parameterNumber":2,"parameterNumberName":"U-component_of_WINDS"},"data":[0,0,0,0,0,0,0,0,0,0,0,0,0,0,0,0,0,0,0,0,0,0,0,0,0,0,0,0,0,0,0,0,0,0,0,0,0,0,0,0,0,0,0,0,0,0,0,0,0,0,0,0,0,0,0,0,0,0,2.0897,2.0898,0,2.0967,2.0968,2.0969,2.0935,2.0934,2.0932,2.093,2.1004,2.1007,2.1011,0,0,0,0,0,0,0,0,0,0,0,0,0,2.0735,2.0738,2.0897,2.0898,2.0898,2.0967,2.0968,2.0969,2.0936,2.0933,2.0931,2.0929,2.1002,2.1007,2.1011,0,0,0,0,0,0,0,0,0,0,0,0,0,2.0805,2.0739,2.0897,2.089,2.089,2.0967,2.0968,2.0969,2.0936,2.0933,2.0931,2.0928,2.1001,2.1006,2.1012,2.1099,0,0,2.1028,2.1031,0,0,0,0,0,0,0,0,2.0801,2.0811,2.089,2.0891,2.0891,2.094,2.0938,2.1013,2.0937,2.0919,2.093,2.0927,2.0985,2.0991,2.101,2.1103,2.1106,2.1029,2.1032,2.1034,2.1036,0,0,0,0,0,0,0,2.0796,2.0808,2.0925,2.0891,2.0892,2.0884,2.0891,2.0952,2.0966,2.092,2.0918,2.0927,2.0984,2.1005,2.1012,2.1107,2.1029,2.1034,2.1037,2.1039,2.1277,2.1279,0,0,0,0,0,0,2.0792,2.0804,2.0922,2.0927,2.0838,2.0889,2.0897,2.0927,2.0965,2.0968,2.0929,2.0925,2.0997,2.1006,2.1014,2.1121,2.1034,2.104,2.1043,2.1274,2.1277,2.128,0,0,0,0,0,0,2.0788,2.0802,2.092,2.0865,2.0879,2.0895,2.0929,2.093,2.095,2.0972,2.0974,2.0948,2.0995,2.1007,2.1079,2.1123,2.1042,2.1047,2.127,2.1275,2.1279,2.1334,0,0,0,0,0,0,2.0784,2.0801,2.0834,2.0866,2.0882,2.0982,2.0931,2.0933,2.096,2.0955,2.099,2.0993,2.0994,2.1071,2.1084,2.1129,2.1051,2.1266,2.1272,2.1277,2.1328,2.134,2.1349,0,0,0,0,0,2.0778,2.0847,2.0836,2.0851,2.0924,2.0985,2.0994,2.0994,2.0963,2.0997,2.1011,2.0992,2.1116,2.1078,2.1093,2.114,2.1263,2.127,2.1277,2.1323,2.1337,2.1349,0,0,0,0,0,0,2.0821,2.0851,2.0839,2.0921,2.095,2.0979,2.1022,2.1008,2.1048,2.1042,2.104,2.1048,2.1123,2.1139,2.1097,2.1228,2.1185,2.1195,2.1215,2.1229,2.1239,2.1234,2.1056,0,0,0,0,0,2.0839,2.0886,2.091,2.098,2.0995,2.1006,2.1033,2.1029,2.1061,2.1073,2.1092,2.1123,2.1169,2.12,2.1243,2.133,2.1338,2.137,2.138,2.1389,2.1398,2.1446,2.1461,2.1303,2.1303,2.1303,0,0,2.0879,2.0901,2.0931,2.0989,2.1011,2.1061,2.1017,2.107,2.1107,2.1081,2.1151,2.1166,2.1201,2.1281,2.1317,2.1296,2.1443,2.1398,2.1404,2.1409,2.1455,2.147,2.1483,2.1308,2.1307,2.1306,0,0,2.0976,2.0997,2.1058,2.1082,2.1117,2.1124,2.1138,2.1169,2.1178,2.1248,2.123,2.1274,2.1352,2.1378,2.1402,2.151,2.1494,2.1524,2.158,2.1627,2.164,2.1651,2.1691,2.1705,2.1533,2.1533,2.1533,0,2.1021,2.1094,2.1091,2.1146,2.1173,2.1151,2.1213,2.1237,2.1284,2.1304,2.1279,2.1378,2.14,2.1487,2.1513,2.1533,2.155,2.152,2.1638,2.1649,2.166,2.1697,2.1712,2.1536,2.1536,2.1536,2.1535,0,2.1148,2.1199,2.1243,2.129,2.1321,2.138,2.1387,2.1419,2.1413,2.1423,2.1495,2.152,2.1569,2.1589,2.1584,2.1675,2.1661,2.1638,2.1595,2.1678,2.1714,2.1728,2.1541,2.154,2.1539,2.1538,0,0,2.1274,2.1319,2.1335,2.1357,2.1394,2.1434,2.1491,2.1539,2.1567,2.16,2.165,2.1717,2.1696,2.1723,2.172,2.1762,2.1847,2.1733,2.1734,2.1754,2.1951,2.1969,2.1986,2.1837,2.1839,2.1842,2.1948,0,2.1375,2.1476,2.1475,2.1569,2.1617,2.1597,2.1648,2.1677,2.1687,2.173,2.1742,2.179,2.1757,2.1774,2.1814,2.1828,2.1887,2.182,2.1883,2.1886,2.1876,2.2004,2.2024,2.2123,2.1962,2.1965,2.1966,0,2.1506,2.1544,2.1643,2.1674,2.1694,2.1739,2.1783,2.1824,2.1856,2.1861,2.1891,2.1883,2.1943,2.1897,2.198,2.1935,2.1961,2.1972,2.1976,2.1983,2.1932,2.2016,2.2155,2.2171,2.1988,2.1986,2.1985,0,2.159,2.1666,2.1735,2.1754,2.1791,2.1824,2.1841,2.1871,2.19,2.1938,2.1957,2.2002,2.2027,2.2063,2.2067,2.2033,2.2151,2.2106,2.2158,2.2158,2.2184,2.2183,2.2331,2.2199,2.2199,2.2199,2.2198,0,2.1704,2.1765,2.1773,2.1816,2.1884,2.1883,2.1951,2.1966,2.1993,2.2038,2.2024,2.2067,2.207,2.2114,2.2118,2.2187,2.2198,2.2204,2.2205,2.2206,2.2206,2.2224,2.2218,2.2202,2.2202,2.2201,2.22,0,2.181,2.1817,2.1892,2.1921,2.193,2.1979,2.2005,2.2046,2.2055,2.2114,2.2127,2.2142,2.2194,2.2201,2.2262,2.2265,2.2348,2.234,2.2337,2.2336,2.2388,2.2384,2.2554,2.2577,2.2429,2.2431,2.2432,0,2.1882,2.1929,2.1964,2.1993,2.2012,2.206,2.2089,2.209,2.2121,2.2162,2.2199,2.2249,2.2289,2.2373,2.239,2.2437,2.2431,2.2488,2.2438,2.2439,2.2434,2.2431,2.2436,2.2498,2.2499,2.25,2.2502,0,2.201,2.2012,2.2055,2.2099,2.2135,2.217,2.2203,2.2228,2.2233,2.2269,2.2322,2.2353,2.2415,2.2466,2.2512,2.2531,2.2518,2.2517,2.2532,2.2534,2.2531,2.2535,2.2364,2.2513,2.2512,2.2511,2.2511,2.251,2.2103,2.2144,2.2175,2.2223,2.2248,2.2279,2.232,2.2334,2.2378,2.2428,2.2426,2.2485,2.2517,2.2578,2.2599,2.2646,2.2627,2.2648,2.2654,2.2659,2.2665,2.2522,2.2654,2.2654,2.2653,2.2653,2.2653,0,2.2231,2.225,2.2294,2.2341,2.238,2.2363,2.2399,2.2432,2.2484,2.2515,2.2555,2.2616,2.2665,2.2686,2.2734,2.2767,2.2763,2.278,2.2778,2.2783,2.2678,2.2661,2.2783,2.2783,2.2783,2.2783,2.2783,2.2783,2.2303,2.2371,2.2377,2.2458,2.2477,2.2534,2.2556,2.2585,2.261,2.2679,2.272,2.2732,2.276,2.281,2.2855,2.286,2.2879,2.2899,2.2902,2.2803,2.279,2.2778,2.2762,2.2903,2.2903,2.3003,2.3004,2.3004]},{"header":{"parameterUnit":"m.s-1","parameterCategory":1,"la1":30.2991,"la2":30.254,"lo1":-89.0895,"lo2":-89.0444,"dx":0.0017,"dy":0.0017,"nx":28,"ny":28,"refTime":"2023-01-20T09:00:00:Z","depth":0,"parameterNumber":3,"parameterNumberName":"V-component_of_WINDS"},"data":[0,0,0,0,0,0,0,0,0,0,0,0,0,0,0,0,0,0,0,0,0,0,0,0,0,0,0,0,0,0,0,0,0,0,0,0,0,0,0,0,0,0,0,0,0,0,0,0,0,0,0,0,0,0,0,0,0,0,-1.0078,-1.0077,0,-1.0067,-1.0067,-1.0067,-1.008,-1.008,-1.0081,-1.0081,-1.0068,-1.0068,-1.0067,0,0,0,0,0,0,0,0,0,0,0,0,0,-1.0107,-1.0106,-1.0078,-1.0077,-1.0077,-1.0067,-1.0067,-1.0067,-1.008,-1.008,-1.0081,-1.0081,-1.0069,-1.0068,-1.0067,0,0,0,0,0,0,0,0,0,0,0,0,0,-1.0095,-1.0106,-1.0078,-1.0083,-1.0083,-1.0067,-1.0067,-1.0067,-1.008,-1.008,-1.0081,-1.0082,-1.0069,-1.0068,-1.0067,-1.0045,0,0,-1.0063,-1.0062,0,0,0,0,0,0,0,0,-1.0096,-1.0094,-1.0082,-1.0082,-1.0083,-1.0076,-1.0073,-1.0059,-1.0079,-1.0081,-1.0081,-1.0082,-1.007,-1.0069,-1.0065,-1.0044,-1.0044,-1.0063,-1.0062,-1.0062,-1.0061,0,0,0,0,0,0,0,-1.0097,-1.0094,-1.0073,-1.0082,-1.0082,-1.0085,-1.0084,-1.007,-1.0071,-1.0081,-1.0082,-1.008,-1.007,-1.0066,-1.0065,-1.0043,-1.0063,-1.0062,-1.0061,-1.0061,-1.0004,-1.0003,0,0,0,0,0,0,-1.0097,-1.0095,-1.0074,-1.0073,-1.0091,-1.0084,-1.0083,-1.0077,-1.0072,-1.0072,-1.008,-1.0081,-1.0068,-1.0066,-1.0065,-1.0038,-1.0062,-1.0061,-1.006,-1.0004,-1.0003,-1.0002,0,0,0,0,0,0,-1.0098,-1.0095,-1.0074,-1.0084,-1.0082,-1.0082,-1.0076,-1.0076,-1.0072,-1.0071,-1.0071,-1.0076,-1.0068,-1.0066,-1.005,-1.0038,-1.006,-1.0059,-1.0005,-1.0004,-1.0003,-0.9985,0,0,0,0,0,0,-1.0098,-1.0095,-1.0087,-1.0084,-1.0081,-1.006,-1.0075,-1.0076,-1.0071,-1.0072,-1.0067,-1.0067,-1.0069,-1.0051,-1.0048,-1.0037,-1.0058,-1.0006,-1.0005,-1.0003,-0.9987,-0.9984,-0.9981,0,0,0,0,0,-1.0099,-1.0082,-1.0087,-1.0084,-1.0071,-1.0059,-1.0057,-1.0061,-1.007,-1.0061,-1.006,-1.0067,-1.004,-1.005,-1.0046,-1.0034,-1.0007,-1.0005,-1.0003,-0.9988,-0.9984,-0.9981,0,0,0,0,0,0,-1.0083,-1.0082,-1.0087,-1.0068,-1.0064,-1.0061,-1.0051,-1.0057,-1.0049,-1.0051,-1.0055,-1.0053,-1.0036,-1.0033,-1.0044,-1.0012,-1.0025,-1.0022,-1.0014,-1.0011,-1.0008,-1.0008,-1.0057,0,0,0,0,0,-1.0078,-1.0068,-1.0068,-1.0051,-1.0049,-1.005,-1.0045,-1.0048,-1.0043,-1.0041,-1.0039,-1.0034,-1.0024,-1.0017,-1.0008,-0.9987,-0.9986,-0.9977,-0.9974,-0.9972,-0.9969,-0.9957,-0.9953,-0.9997,-0.9997,-0.9997,0,0,-1.0066,-1.0064,-1.0057,-1.0048,-1.0045,-1.0034,-1.0048,-1.0037,-1.0029,-1.0039,-1.0023,-1.0022,-1.0016,-0.9997,-0.9988,-0.9994,-0.9957,-0.9969,-0.9967,-0.9966,-0.9955,-0.9951,-0.9947,-0.9995,-0.9996,-0.9996,0,0,-1.0038,-1.0036,-1.0022,-1.0019,-1.0015,-1.0016,-1.0012,-1.0009,-1.0009,-0.9993,-1.0001,-0.9991,-0.9974,-0.997,-0.9965,-0.9937,-0.9942,-0.9934,-0.9918,-0.9906,-0.9902,-0.9899,-0.9889,-0.9885,-0.9932,-0.9931,-0.9931,0,-1.0024,-1.0009,-1.0014,-1.0002,-0.9997,-1.0007,-0.9993,-0.9989,-0.9982,-0.9978,-0.9985,-0.9964,-0.9961,-0.9941,-0.9934,-0.993,-0.9926,-0.9934,-0.9903,-0.99,-0.9897,-0.9887,-0.9883,-0.993,-0.9931,-0.9931,-0.9931,0,-0.9991,-0.9981,-0.997,-0.9963,-0.9957,-0.9944,-0.9946,-0.994,-0.9944,-0.9944,-0.9928,-0.9925,-0.9915,-0.9911,-0.9914,-0.9891,-0.9895,-0.9902,-0.9915,-0.9892,-0.9882,-0.9878,-0.9929,-0.9929,-0.993,-0.993,0,0,-0.9952,-0.9949,-0.9945,-0.9941,-0.9937,-0.9929,-0.9916,-0.9908,-0.9902,-0.9896,-0.9885,-0.9871,-0.9878,-0.9873,-0.9876,-0.9866,-0.9843,-0.9875,-0.9875,-0.9868,-0.9816,-0.981,-0.9805,-0.9847,-0.9846,-0.9846,-0.9817,0,-0.9924,-0.9902,-0.9907,-0.9885,-0.9875,-0.9885,-0.9874,-0.9869,-0.987,-0.9861,-0.9861,-0.985,-0.9861,-0.9858,-0.9849,-0.9848,-0.9832,-0.985,-0.9836,-0.9835,-0.9836,-0.98,-0.9793,-0.9766,-0.9813,-0.9812,-0.9812,0,-0.9888,-0.9882,-0.986,-0.9857,-0.9853,-0.9843,-0.9835,-0.9827,-0.9823,-0.9823,-0.9818,-0.9823,-0.981,-0.9823,-0.9804,-0.9816,-0.9811,-0.981,-0.9809,-0.9806,-0.9821,-0.9796,-0.9757,-0.9753,-0.9806,-0.9806,-0.9807,0,-0.9861,-0.9847,-0.9832,-0.9829,-0.9826,-0.9819,-0.9817,-0.9813,-0.9808,-0.9801,-0.9797,-0.9789,-0.9784,-0.9777,-0.978,-0.9789,-0.976,-0.9774,-0.976,-0.9759,-0.9752,-0.9752,-0.9711,-0.975,-0.975,-0.975,-0.975,0,-0.9829,-0.9814,-0.982,-0.981,-0.9794,-0.98,-0.9784,-0.9783,-0.978,-0.977,-0.9778,-0.9768,-0.9772,-0.9763,-0.9765,-0.9749,-0.9747,-0.9746,-0.9747,-0.9745,-0.9745,-0.974,-0.9742,-0.9749,-0.975,-0.975,-0.975,0,-0.9795,-0.9798,-0.9782,-0.9781,-0.978,-0.9769,-0.9767,-0.9758,-0.9759,-0.9746,-0.9744,-0.9745,-0.9734,-0.9736,-0.9724,-0.9726,-0.9705,-0.9709,-0.9707,-0.9707,-0.9692,-0.9693,-0.9646,-0.9639,-0.9684,-0.9684,-0.9683,0,-0.9774,-0.9763,-0.9761,-0.9755,-0.9753,-0.9744,-0.9738,-0.9743,-0.9737,-0.9732,-0.9723,-0.9713,-0.9705,-0.9688,-0.9687,-0.9678,-0.9681,-0.9665,-0.9679,-0.9678,-0.9679,-0.9679,-0.9678,-0.9661,-0.9661,-0.966,-0.966,0,-0.9735,-0.9738,-0.973,-0.9723,-0.9716,-0.9711,-0.9706,-0.97,-0.9705,-0.9698,-0.9687,-0.9681,-0.967,-0.9659,-0.9651,-0.9649,-0.9655,-0.9656,-0.9652,-0.9649,-0.9648,-0.9648,-0.9698,-0.9656,-0.9657,-0.9657,-0.9657,-0.9657,-0.9707,-0.9697,-0.9695,-0.9686,-0.9683,-0.9678,-0.9669,-0.9669,-0.9661,-0.9652,-0.9656,-0.9643,-0.9639,-0.9629,-0.9625,-0.9616,-0.9621,-0.9616,-0.9614,-0.9613,-0.961,-0.9651,-0.9614,-0.9614,-0.9614,-0.9615,-0.9615,0,-0.9668,-0.9667,-0.9658,-0.9652,-0.9644,-0.9652,-0.9647,-0.964,-0.963,-0.9626,-0.9618,-0.9606,-0.9596,-0.9595,-0.9586,-0.9578,-0.9581,-0.9576,-0.9576,-0.9575,-0.9606,-0.961,-0.9574,-0.9574,-0.9574,-0.9574,-0.9574,-0.9574,-0.9647,-0.9631,-0.9633,-0.9616,-0.9615,-0.9604,-0.96,-0.9596,-0.9592,-0.9578,-0.9571,-0.9571,-0.9568,-0.9558,-0.955,-0.955,-0.9545,-0.9539,-0.954,-0.9569,-0.9573,-0.9577,-0.958,-0.9538,-0.9538,-0.9509,-0.9509,-0.9509]}]]